{"data":{"norad_id":63850,"epoch":"2026-05-24T21:33:23.904576Z","epoch_age_seconds":79997,"freshness":"FRESH","line1":"1 63850U 25093Q   26144.89819334  .00015085  00000+0  55636-3 0  9999","line2":"2 63850  43.0006   7.8307 0001421 277.1571  82.9119 15.27593794 59466","mean_motion":15.27593794,"eccentricity":0.0001421,"inclination_deg":43.0006,"raan_deg":7.8307,"arg_perigee_deg":277.1571,"mean_anomaly_deg":82.9119,"bstar":0.00055636,"rev_number":5946,"period_min":94.265897495522,"perigee_km":482.03282347713,"apogee_km":483.98276082706,"semimajor_km":6861.1447921521,"source":"CELESTRAK","updated_at":"2026-05-25T13:38:20.149161Z"}}